Погода в Хьюэндене

Австралия     20°50′37″S   144°12′01″E
темп.,
°C
ветер,
м/с
пор.,
м/с
влажн.,
%
обл.,
%
осадки,
мм/ч
давл.,
гПа
погр.,
м
3 марта, ср
ср301:00+27юв4763100 0.0 1006173
04:00+25вюв4569100 0.0 1006116
07:00+25юв3773100 0.0 1008298
10:00+31вюв81048100 0.0 10091489
13:00+35юв9113088 0.0 10062576
16:00+35ююв10112559 0.0 10032726
19:00+31ююв61225100 0.0 1004239
22:00+29ююв8162877 0.0 1006369
4 марта, чт
чт401:00+27юв6143325 0.0 1005310
04:00+25ююв7143532 0.0 1005325
07:00+24юв474182 0.0 1007154
10:00+29юв673991 0.0 10071187
13:00+33ююв882662 0.0 10042233
16:00+33ююв882768 0.0 10032617
19:00+29вюв593991 0.0 1004261
22:00+27вюв344992 0.0 100768
5 марта, пт
пт501:00+25в485793 0.0 1006230
04:00+24всв5106996 0.0 1006422
07:00+23в597774 0.0 1008484
10:00+28в784885 0.0 1008983
13:00+32вюв663418 0.0 10062292
16:00+32юв653445 0.0 10042302
19:00+29ююв453848 0.0 100586
22:00+27юв334136 0.0 100827
6 марта, сб
сб601:00+26св12490 0.0 100724
04:00+24св12500 0.0 100624
07:00+25св44500 0.0 100773
10:00+31св23310 0.0 10092045
13:00+34юв33240 0.0 10072985
16:00+34ю332219 0.0 10053076
19:00+32ююв4627100 0.0 1006211
22:00+29св473989 0.0 1008157
7 марта, вс
вс701:00+27св474513 0.0 1008137
04:00+25ссв610586 0.0 1008228
07:00+24ссв510570 0.0 1010282
10:00+31с553511 0.0 10111176
13:00+33в222742 0.0 10092698
16:00+33всв332846 0.0 10071624
19:00+29св464046 0.0 1009145
22:00+27ссв4105026 0.0 1011357